Location: Black Creek
(40.9000°S, 175.5500°E)
Time: 02:34:03
(UTC+00:00)

Meteor 1-24 Rocket - Pass Details

Date: 04 November 2024
Orbit: 789 x 926 km, 81.3° (Epoch: 03 December)

Event Time Altitude Azimuth Distance (km) Brightness Sun altitude
Rises 15:19:32 0° 182° (S) 3,612 7.5 -17.2°
Reaches altitude 10° 15:22:18 10° 172° (S) 2,660 7.0 -16.8°
Maximum altitude 15:27:49 34° 108° (ESE) 1,474 5.6 -16.0°
Drops below altitude 10° 15:33:10 10° 43° (NE) 2,589 6.3 -15.2°
Sets 15:35:49 0° 34° (NE) 3,504 6.9 -14.8°
